This is the latest recevied weather packets stored in our database for station/object HS5BOG-13. If no packets are shown the sender has not sent any weather packets the latest 10 day(s).
| Time | Temp. | Humidity | Pressure | Rain* | Wind** | Luminosity | Snow |
|---|---|---|---|---|---|---|---|
| 1778314204 | 31.11° C | 69% | 989.5 hPa | - | - | - | - |
| 1778313599 | 31.11° C | 69% | 989.9 hPa | - | - | - | - |
| 1778312387 | 31.11° C | 70% | 990.5 hPa | - | - | - | - |
| 1778311782 | 31.11° C | 70% | 990.7 hPa | - | - | - | - |
| 1778311176 | 30.56° C | 70% | 990.8 hPa | - | - | - | - |
| 1778310571 | 30.56° C | 71% | 991 hPa | - | - | - | - |
| 1778309965 | 30.56° C | 72% | 991.1 hPa | - | - | - | - |
| 1778308754 | 30.56° C | 73% | 991.4 hPa | - | - | - | - |
| 1778308149 | 30.56° C | 73% | 991.7 hPa | - | - | - | - |
| 1778307489 | 30.56° C | 74% | 991.9 hPa | - | - | - | - |
| 1778306883 | 30.56° C | 74% | 992.1 hPa | - | - | - | - |
| 1778306278 | 30.56° C | 77% | 992.4 hPa | - | - | - | - |
| 1778305672 | 30.56° C | 76% | 992.6 hPa | - | - | - | - |
| 1778305067 | 30° C | 72% | 992.8 hPa | - | - | - | - |
| 1778304461 | 30.56° C | 70% | 992.8 hPa | - | - | - | - |
| 1778303855 | 30.56° C | 72% | 992.9 hPa | - | - | - | - |
| 1778303250 | 30.56° C | 73% | 993.2 hPa | - | - | - | - |
| 1778302644 | 30° C | 74% | 993.4 hPa | - | - | - | - |
| 1778302038 | 30° C | 76% | 993.6 hPa | - | - | - | - |
| 1778301433 | 30° C | 75% | 993.6 hPa | - | - | - | - |
| 1778300827 | 30° C | 76% | 993.8 hPa | - | - | - | - |
| 1778300222 | 30° C | 76% | 994.1 hPa | - | - | - | - |
| 1778299616 | 30° C | 76% | 994.2 hPa | - | - | - | - |
| 1778299011 | 30° C | 78% | 994.4 hPa | - | - | - | - |
| 1778298405 | 29.44° C | 80% | 994.5 hPa | - | - | - | - |
* Rain since midnight (hover to see other rain measurements)
** Current wind speed in m/s (hover to see current wind gust speed)